{"data":{"norad_id":62336,"epoch":"2026-09-22T23:14:03.301728Z","epoch_age_seconds":98711,"freshness":"FRESH","line1":"1 62336U 24241D   26265.96809377  .00005036  00000+0  27046-3 0  9998","line2":"2 62336  97.5308 212.4443 0001494  75.9265 284.2133 15.15365701 97605","mean_motion":15.15365701,"eccentricity":0.0001494,"inclination_deg":97.5308,"raan_deg":212.4443,"arg_perigee_deg":75.9265,"mean_anomaly_deg":284.2133,"bstar":0.00027046,"rev_number":9760,"period_min":95.026566791748,"perigee_km":518.83798434472,"apogee_km":520.89910840198,"semimajor_km":6898.0055463734,"source":"CELESTRAK","updated_at":"2026-09-23T09:00:21.387562Z"}}